Date,TemperatureHighF,TemperatureAvgF,TemperatureLowF,DewpointHighF,DewpointAvgF,DewpointLowF,HumidityHigh,HumidityAvg,HumidityLow,PressureMaxIn,PressureMinIn,WindSpeedMaxMPH,WindSpeedAvgMPH,GustSpeedMaxMPH,PrecipitationSumIn
2013-1-1,41.4,37.6,30.1,40.9,36.8,28.3,98,97,93,30.13,29.98,4,1,12,0.07
2013-1-2,33.2,28.4,24.0,28.1,24.5,22.0,93,86,69,30.23,30.12,2,1,7,0.07
2013-1-3,43.6,30.3,21.5,26.6,21.8,18.5,96,74,37,30.40,30.21,4,1,11,0.01
2013-1-4,44.6,31.1,19.4,28.6,23.3,17.7,96,75,48,30.47,30.37,4,1,11,0.01
2013-1-5,47.3,34.7,20.7,32.1,26.4,19.2,96,74,49,30.40,30.23,3,0,9,0.00
2013-1-6,47.6,38.2,25.7,37.1,32.2,22.4,95,80,56,30.35,30.15,5,2,12,0.00
2013-1-7,48.6,33.0,21.6,29.5,25.0,19.3,93,75,44,30.42,30.23,3,0,8,0.00
2013-1-8,58.2,43.1,27.2,42.1,33.4,24.4,92,71,43,30.30,30.18,3,1,10,0.00
2013-1-9,54.3,51.3,48.2,52.9,49.4,42.8,98,93,77,30.35,30.22,4,1,10,0.31
2013-1-10,64.9,58.4,51.6,61.0,56.8,50.9,99,95,86,30.32,29.91,6,3,16,0.03
2013-1-11,68.8,62.6,57.1,62.1,57.7,54.2,96,85,65,30.01,29.89,5,2,21,0.11
2013-1-12,67.9,66.0,63.7,65.3,63.6,62.3,99,92,83,29.96,29.76,6,2,19,0.37
2013-1-13,67.6,51.2,32.2,62.3,49.3,29.6,98,94,82,30.18,29.74,6,3,22,2.72
2013-1-14,32.0,28.4,25.9,29.4,25.5,22.8,94,89,82,30.37,30.18,5,2,16,2.72
2013-1-15,31.8,29.2,26.0,30.9,27.8,24.3,97,94,93,30.24,29.99,3,1,8,0.00
2013-1-16,32.2,31.5,30.5,31.4,30.6,29.6,97,97,95,30.12,29.99,0,0,0,0.01
2013-1-17,44.7,34.9,30.8,38.2,31.5,28.2,97,88,71,30.42,30.05,6,1,13,0.09
2013-1-18,50.5,35.7,23.6,32.7,27.0,21.8,96,73,41,30.55,30.34,3,0,9,0.02
2013-1-19,57.0,42.9,28.7,34.0,29.4,25.5,92,63,35,30.35,30.13,5,1,15,0.02
2013-1-24,31.5,31.4,31.3,11.0,10.8,10.4,42,42,41,30.25,30.24,3,2,7,0.00
2013-1-25,41.6,33.8,29.8,39.0,29.8,11.5,96,86,43,30.24,29.99,4,1,10,0.58
2013-1-26,49.9,36.7,28.5,37.1,29.9,27.5,98,79,45,30.32,30.22,3,0,9,0.58
2013-1-27,50.4,41.5,29.7,43.3,36.2,27.5,93,82,65,30.30,30.16,4,2,10,0.00
2013-1-28,61.3,55.7,50.4,53.7,48.5,39.2,86,77,65,30.19,30.06,4,2,15,0.00
2013-1-29,70.0,62.9,52.3,63.5,58.7,50.3,95,86,76,30.07,29.50,7,3,23,0.00
2013-1-30,71.2,49.5,34.1,63.1,43.8,24.7,98,81,65,29.89,29.42,9,4,28,0.08
2013-1-31,46.3,37.0,28.5,34.5,25.8,22.0,95,65,44,30.22,29.89,8,3,10,0.05
2013-2-1,29.7,22.5,13.2,25.0,14.4,9.5,90,72,46,30.48,30.22,5,1,8,0.01
2013-2-2,46.7,33.0,20.1,31.4,25.6,16.3,92,75,55,30.32,30.06,6,1,9,0.07
2013-2-3,49.8,39.2,28.6,34.8,29.2,24.7,91,69,45,30.13,30.00,7,2,12,0.00
2013-2-4,59.9,42.5,27.6,35.4,29.4,24.5,93,65,28,30.08,29.88,5,1,9,0.00
2013-2-5,63.3,50.6,44.3,44.4,38.3,32.9,82,64,40,30.02,29.89,4,1,7,0.00
2013-2-6,59.8,47.2,36.5,37.8,32.9,28.1,91,61,33,30.19,30.02,3,1,5,0.00
2013-2-7,63.8,52.6,41.8,49.0,41.4,29.1,84,66,51,30.07,29.85,4,1,7,0.00
2013-2-8,52.3,42.1,33.5,48.3,37.3,28.5,96,83,72,30.29,29.84,5,2,16,0.23
2013-2-9,54.2,41.5,31.7,35.2,29.6,26.3,85,65,35,30.33,30.09,4,2,7,0.00
2013-2-10,57.1,51.8,43.1,56.0,44.8,34.0,96,78,53,30.09,29.78,7,2,18,0.65
2013-2-11,57.5,48.3,40.2,55.9,36.0,27.9,95,64,39,30.13,29.88,4,2,6,0.65
2013-2-12,50.8,43.3,32.6,39.4,33.8,29.8,93,71,49,30.13,29.76,4,1,8,0.07
2013-2-13,41.6,38.5,33.4,39.2,36.1,32.1,96,91,85,29.98,29.69,4,1,7,0.24
2013-2-14,56.2,39.8,30.5,40.3,32.3,29.6,98,78,37,30.01,29.96,4,0,6,0.01
2013-2-15,50.4,41.5,30.0,36.9,30.2,20.4,86,65,41,30.15,29.99,5,2,10,0.00
2013-2-16,39.2,29.2,20.3,24.6,15.8,9.7,92,60,34,30.20,30.10,8,2,14,0.00
2013-2-17,47.3,33.1,16.7,21.7,17.1,10.8,90,55,31,30.27,30.12,4,1,8,0.00
2013-2-18,61.5,46.3,34.3,36.9,29.2,20.9,68,52,37,30.14,29.91,7,3,12,0.00
2013-2-21,44.5,44.0,43.6,43.7,43.2,42.8,97,97,97,29.82,29.82,2,1,5,0.82
2013-2-22,59.6,49.2,37.9,48.6,43.2,34.6,97,81,49,30.01,29.81,3,1,8,0.86
2013-2-23,51.8,40.2,32.6,35.1,31.6,26.8,95,73,43,29.99,29.88,4,1,6,0.00
2013-2-24,54.1,38.3,27.5,27.6,26.0,24.4,90,65,33,30.10,29.97,4,1,6,0.00
2013-2-25,58.0,46.2,38.4,46.1,28.7,24.4,86,52,32,30.05,29.43,7,2,11,0.02
2013-2-26,50.1,44.6,37.9,48.2,41.1,34.4,96,88,66,29.69,29.34,7,3,14,0.04
2013-2-27,39.0,37.9,37.0,34.8,32.3,30.8,89,80,75,29.89,29.70,5,3,13,0.01
2013-2-28,37.6,35.5,32.3,31.4,28.2,25.9,86,75,65,30.04,29.85,5,2,10,0.01
2013-3-1,36.9,33.4,31.5,32.4,30.8,29.2,96,90,80,30.06,30.00,4,2,7,0.02
2013-3-2,31.5,30.2,27.6,30.4,28.1,24.9,96,92,86,30.16,30.03,5,2,7,0.03
2013-3-3,42.2,31.7,21.8,25.2,21.0,17.4,93,67,37,30.17,30.06,4,1,10,0.02
2013-3-4,59.2,44.9,29.5,38.8,28.1,22.4,83,54,35,30.10,29.78,6,2,11,0.02
2013-3-5,56.5,46.1,32.4,54.1,40.6,20.5,96,82,58,30.01,29.66,10,4,19,0.04
2013-3-6,40.7,34.9,28.5,28.6,26.3,24.6,86,71,59,30.28,30.23,6,2,11,0.00
2013-3-7,46.3,35.2,26.2,31.4,27.7,23.6,91,75,53,30.37,30.27,4,1,8,0.00
2013-3-8,57.7,39.9,26.1,30.5,24.6,17.1,93,61,21,30.38,30.22,4,1,7,0.00
2013-3-9,65.8,56.0,41.1,38.7,33.2,28.1,67,43,27,30.21,29.96,5,2,7,0.01
2013-3-10,70.3,62.4,55.0,55.3,46.1,36.1,97,60,37,29.95,29.71,7,3,13,0.67
2013-3-11,55.9,44.3,37.9,55.1,40.6,31.0,98,87,73,29.97,29.70,6,2,9,1.13
2013-3-12,53.2,40.8,28.1,32.5,29.0,25.3,95,66,37,30.13,29.96,6,2,10,0.00
2013-3-13,44.1,37.4,30.5,29.1,23.8,19.6,82,59,40,30.38,30.11,8,3,14,0.00
2013-3-14,49.9,37.2,21.0,25.8,21.4,17.8,93,57,30,30.40,30.17,4,1,5,0.00
2013-3-15,77.4,57.5,34.4,47.6,38.4,24.0,79,51,33,30.17,29.82,7,2,11,0.00
2013-3-16,77.0,65.6,55.7,52.4,49.0,45.7,71,56,39,29.87,29.75,6,3,13,0.00
2013-3-17,59.0,52.6,46.2,50.6,46.0,41.9,85,78,69,29.90,29.71,4,2,10,0.00
2013-3-18,64.7,56.6,41.8,58.8,51.8,39.9,97,84,70,29.95,29.64,6,3,14,1.04
2013-3-19,41.1,41.1,41.1,39.2,39.2,39.2,93,93,93,29.96,29.96,0,0,0,0.00
2013-3-26,39.8,36.4,31.8,28.1,26.8,25.3,77,68,61,30.33,30.27,3,0,6,0.06
2013-3-27,53.2,39.5,23.7,31.0,25.8,21.7,94,61,32,30.39,30.27,5,1,8,0.01
2013-3-28,62.8,48.0,33.8,37.2,31.5,26.4,86,56,31,30.34,30.22,4,1,9,0.00
2013-3-29,50.1,47.6,43.7,48.2,41.2,33.9,97,80,59,30.26,30.14,3,0,5,0.38
2013-3-30,56.8,50.1,45.1,53.3,48.5,44.5,98,94,78,30.16,29.89,2,1,4,0.17
2013-3-31,56.5,52.9,43.6,55.0,51.3,42.3,98,94,83,29.89,29.83,4,1,5,0.10
2013-4-1,63.4,50.0,36.5,47.1,38.5,28.8,99,69,39,30.11,29.87,6,2,9,0.00
2013-4-2,47.9,42.4,37.5,30.8,26.6,22.2,68,54,36,30.24,30.10,3,1,4,0.00
2013-4-3,53.2,46.0,36.7,29.7,22.7,19.5,66,41,29,30.24,30.12,6,3,10,0.00
2013-4-4,47.9,42.6,38.0,36.5,30.7,24.0,93,66,40,30.11,30.02,3,1,6,0.28
2013-4-5,67.3,58.6,43.4,45.2,37.2,32.4,98,48,31,30.10,30.00,5,2,8,0.00
2013-4-6,73.9,55.8,36.7,42.6,38.6,34.9,94,58,27,30.10,29.92,5,1,11,0.00
2013-4-7,74.8,64.0,55.6,52.5,46.4,39.5,71,54,36,30.01,29.90,5,2,9,0.00
2013-4-8,78.4,65.4,52.6,56.8,52.7,47.1,84,65,42,29.98,29.85,5,2,9,0.00
2013-4-9,79.4,68.8,60.1,63.7,60.2,56.5,88,75,56,30.04,29.90,4,1,9,0.00
2013-4-10,85.3,74.3,63.5,62.7,59.9,55.8,86,63,44,29.95,29.70,5,2,8,0.00
2013-4-11,73.3,62.7,46.4,62.2,56.6,44.8,97,82,55,29.71,29.57,6,2,16,1.19
2013-4-12,65.6,51.0,36.9,44.7,40.4,36.1,98,71,39,29.94,29.68,7,2,16,0.01
2013-4-13,70.7,53.4,37.3,42.4,36.9,33.4,86,57,26,30.07,29.92,3,1,8,0.00
2013-4-14,70.7,58.1,47.2,52.2,46.1,41.3,83,66,40,29.94,29.78,7,2,20,0.00
2013-4-15,82.2,67.9,53.4,59.9,56.0,51.1,92,68,41,29.93,29.82,4,2,12,0.00
2013-4-16,81.4,70.0,64.0,68.6,64.2,59.3,95,82,63,30.06,29.92,3,1,11,0.00
2013-4-17,86.3,74.8,63.5,70.1,65.3,62.6,99,75,47,30.07,29.86,4,1,12,0.00
2013-4-18,81.8,73.7,60.0,66.6,63.5,57.7,95,71,52,29.86,29.53,6,3,21,0.76
2013-4-19,58.0,43.9,35.8,56.0,37.9,32.6,96,80,59,30.09,29.59,8,2,23,0.16
2013-4-20,63.1,47.9,31.6,39.9,33.6,30.0,97,64,30,30.26,30.09,4,1,12,0.01
2013-4-21,67.4,53.3,37.3,45.0,35.6,27.6,88,56,26,30.34,30.18,4,1,12,0.00
2013-4-22,72.1,58.5,42.6,48.0,43.6,39.5,90,61,35,30.22,30.03,4,1,16,0.00
2013-4-23,71.0,58.0,49.5,56.1,50.9,45.6,88,78,58,30.07,29.90,2,0,13,0.00
2013-4-24,66.1,51.9,40.7,61.6,46.9,37.3,96,83,72,30.25,29.79,7,2,19,0.67
2013-4-25,67.0,49.6,32.2,41.7,36.3,30.9,97,66,28,30.35,30.23,3,1,10,0.01
2013-4-26,61.9,50.6,40.6,48.4,43.8,38.4,96,79,52,30.39,30.22,4,1,11,0.45
2013-4-27,51.7,50.1,49.1,50.9,49.3,48.0,97,97,96,30.29,30.12,4,1,9,0.32
2013-4-28,66.9,60.3,53.2,57.2,54.4,50.9,96,82,67,29.92,29.85,4,1,10,0.06
2013-4-29,77.2,61.3,47.1,56.3,51.5,46.3,99,74,34,29.98,29.85,3,0,10,0.00
2013-4-30,79.7,64.5,47.5,58.0,52.8,46.4,97,70,38,29.96,29.88,3,1,12,0.01
2013-5-1,78.2,66.1,54.6,63.8,57.7,52.9,95,76,51,30.05,29.95,4,1,11,0.00
2013-5-2,77.5,64.6,55.7,64.9,58.3,54.2,95,81,55,30.09,29.99,4,1,10,0.01
2013-5-3,73.0,61.7,41.9,59.5,54.3,40.7,96,78,56,29.99,29.74,7,3,19,0.63
2013-5-4,53.7,45.2,39.3,45.3,41.9,38.5,97,89,69,29.94,29.83,2,0,8,0.74
2013-5-5,62.1,50.9,39.2,49.3,45.2,38.2,98,82,57,29.89,29.76,4,1,12,0.00
2013-5-6,62.8,54.2,49.9,58.0,52.1,48.4,98,93,77,29.86,29.74,2,0,9,0.37
2013-5-7,70.4,56.4,42.6,58.3,52.1,41.8,99,87,62,29.97,29.86,2,0,8,0.01
2013-5-8,78.7,65.2,51.7,61.3,56.5,50.9,98,76,47,30.01,29.92,4,1,10,0.00
2013-5-9,81.6,68.5,55.3,63.6,58.9,53.9,97,74,46,30.03,29.90,2,0,11,0.00
2013-5-10,69.2,64.7,61.9,65.4,62.6,61.0,98,93,81,29.90,29.82,2,1,10,1.04
2013-5-11,67.6,61.1,54.4,62.2,56.2,51.3,99,85,61,30.01,29.86,4,1,11,0.02
2013-5-12,63.7,53.7,41.3,49.0,37.8,30.9,91,58,31,30.14,30.02,4,1,13,0.00
2013-5-13,70.9,54.6,36.2,47.9,40.2,34.9,96,64,32,30.24,30.10,4,1,11,0.00
2013-5-14,84.6,67.0,46.3,61.1,54.1,44.7,95,67,41,30.12,29.94,3,1,11,0.00
2013-5-15,84.1,72.6,62.5,61.5,55.5,51.0,76,57,34,30.04,29.90,3,1,11,0.00
2013-5-16,82.5,71.0,61.7,65.5,60.4,56.5,89,71,50,29.97,29.86,2,0,8,0.00
2013-5-17,67.2,65.0,61.9,66.3,63.2,57.2,98,94,76,29.96,29.86,2,0,8,0.40
2013-5-18,82.9,72.7,65.1,71.4,67.9,64.5,99,86,63,29.95,29.88,2,0,8,0.04
2013-5-19,86.1,76.2,67.3,75.1,70.4,66.7,99,83,65,29.93,29.85,3,1,12,0.00
2013-5-20,83.3,74.3,65.2,73.0,69.1,64.2,98,85,69,29.94,29.82,2,1,9,0.00
2013-5-21,77.7,69.5,63.6,71.0,66.9,62.8,98,92,78,29.94,29.76,4,1,11,0.72
2013-5-22,76.5,67.7,60.8,68.1,64.4,60.2,99,90,71,29.84,29.74,3,1,12,0.17
2013-5-23,76.0,66.8,59.0,63.1,59.3,54.6,99,79,57,30.03,29.83,4,1,13,0.00
2013-5-24,70.5,61.8,54.3,56.5,50.3,47.6,88,68,46,30.25,30.03,3,2,11,0.00
2013-5-26,83.8,74.3,61.8,63.4,59.4,56.3,89,63,41,30.11,30.05,1,0,7,0.00
2013-5-27,84.0,70.6,54.7,66.5,60.9,53.6,98,74,45,30.08,29.95,3,1,9,0.00
2013-5-28,85.4,74.0,62.4,65.4,62.2,59.8,92,69,44,30.02,29.93,3,1,12,0.00
2013-5-29,85.1,75.4,64.1,69.3,65.6,61.6,94,73,49,30.05,29.93,3,1,12,0.00
2013-5-30,83.9,76.3,70.2,73.6,67.6,64.4,83,75,63,30.03,29.90,4,2,15,0.00
2013-5-31,82.5,75.8,71.9,73.7,69.4,66.3,88,81,72,29.98,29.87,2,1,11,0.01
2013-6-1,80.2,71.0,64.3,71.4,67.1,63.7,98,88,74,29.92,29.76,4,1,13,0.37
2013-6-2,79.3,69.4,63.5,69.1,65.3,59.9,99,87,68,29.89,29.83,3,0,10,0.00
2013-6-3,77.6,67.5,57.4,63.6,60.2,56.3,98,79,56,29.97,29.87,2,0,8,0.00
2013-6-4,81.3,68.4,55.4,67.3,60.1,54.0,96,77,51,29.99,29.90,2,0,7,0.00
2013-6-5,82.2,70.1,61.1,72.2,66.3,59.6,98,88,68,29.93,29.77,3,0,6,0.53
2013-6-7,74.7,67.9,62.7,68.1,63.6,61.3,96,87,77,29.82,29.75,1,0,5,0.01
2013-6-8,81.0,63.9,57.8,66.2,60.6,57.2,99,90,54,29.95,29.80,0,0,6,0.00
2013-6-9,84.4,70.7,60.3,73.5,66.6,59.4,98,88,65,29.97,29.78,3,0,10,0.15
2013-6-10,84.2,76.0,66.3,73.4,70.1,66.0,99,83,63,29.87,29.78,3,1,12,0.02
2013-6-11,91.0,76.3,65.6,79.4,72.2,65.0,99,88,64,29.95,29.86,3,0,8,0.00
2013-6-12,91.1,81.3,73.5,78.3,74.7,72.0,96,81,62,29.99,29.83,3,0,8,0.00
2013-6-13,86.7,78.1,66.3,77.3,71.2,63.6,93,80,60,29.88,29.76,4,2,15,0.00
2013-6-14,81.8,70.5,56.8,65.9,60.8,55.1,96,73,52,29.97,29.86,3,1,9,0.00
2013-6-15,86.5,72.8,59.2,71.5,64.4,57.9,97,77,49,30.03,29.93,2,0,7,0.00
2013-6-16,84.7,75.2,65.0,75.8,70.3,64.1,98,86,67,30.00,29.90,1,0,8,0.00
2013-6-17,85.2,73.6,65.9,76.8,70.2,65.0,98,90,72,29.91,29.80,2,0,9,0.13
2013-6-18,82.1,72.1,66.3,72.1,68.3,65.4,98,89,62,29.90,29.75,4,0,9,0.55
2013-6-19,87.3,75.2,63.8,73.1,67.8,63.2,99,80,53,29.99,29.89,2,0,7,0.00
2013-6-20,90.0,76.7,63.9,74.5,68.8,63.2,98,79,50,30.08,29.99,2,0,7,0.01
2013-6-21,87.6,76.3,65.5,73.7,69.2,64.3,96,80,57,30.13,30.03,2,0,6,0.00
2013-6-22,87.3,76.4,66.2,73.2,68.9,65.3,98,79,53,30.12,29.99,2,0,7,0.00
2013-6-23,88.1,76.4,64.9,74.8,69.2,64.0,98,80,54,30.08,29.97,2,0,6,0.01
2013-6-24,89.7,76.9,67.2,75.4,71.0,66.3,98,84,56,30.09,29.98,2,0,8,0.00
2013-6-25,88.0,75.6,68.9,76.8,71.6,68.2,99,88,67,30.03,29.98,2,0,6,0.00
2013-6-27,91.7,83.8,71.6,79.6,75.5,71.2,99,77,56,29.81,29.75,4,1,12,0.81
2013-6-28,86.2,80.8,72.7,75.2,72.8,70.5,93,77,64,29.74,29.61,4,2,16,0.00
2013-6-29,84.5,78.1,64.9,69.0,65.9,59.9,84,67,52,29.65,29.57,3,1,11,0.00
2013-6-30,66.2,60.4,58.4,63.4,58.8,57.2,98,94,85,29.69,29.62,0,0,1,0.00
2013-7-1,76.9,69.9,63.9,67.4,65.6,63.3,99,87,70,29.82,29.75,3,1,10,0.04
2013-7-2,73.6,65.5,61.6,65.7,63.3,60.7,98,93,76,29.96,29.82,1,0,6,0.00
2013-7-3,83.1,72.0,58.7,69.9,65.6,58.1,99,82,56,30.03,29.96,2,0,5,0.00
2013-7-4,71.6,68.6,66.3,70.0,67.3,65.4,98,96,92,30.02,29.96,3,1,9,0.06
2013-7-5,76.7,70.5,65.9,72.1,68.8,65.0,99,95,82,30.04,29.96,3,0,11,0.18
2013-7-6,73.0,68.6,66.8,69.4,67.7,66.2,99,97,87,30.05,29.98,3,0,7,0.21
2013-7-7,86.7,75.4,65.4,74.3,69.9,64.0,98,84,62,30.06,29.98,1,0,7,0.00
2013-7-8,90.0,76.9,66.9,75.9,71.4,66.3,98,85,56,30.10,30.00,2,0,5,0.00
2013-7-9,92.4,76.8,68.8,78.1,72.9,68.2,99,89,58,30.07,29.95,1,0,7,0.00
2013-7-10,91.6,80.7,71.6,79.8,74.9,70.3,99,84,64,29.97,29.81,3,1,9,0.04
2013-7-11,83.5,72.2,68.6,76.4,69.8,62.2,99,92,78,29.90,29.86,1,0,4,0.01
2013-7-12,82.4,71.9,63.7,67.1,62.5,59.2,92,74,50,29.95,29.88,3,1,10,0.00
2013-7-13,81.5,70.4,57.9,65.8,61.9,56.4,97,76,53,29.99,29.93,3,1,11,0.00
2013-7-20,92.7,84.4,73.6,74.4,71.2,69.4,89,66,49,29.92,29.78,3,1,0,0.00
2013-7-21,87.1,75.4,69.7,77.0,72.4,68.8,98,91,72,29.91,29.84,2,0,0,0.58
2013-7-22,76.1,72.4,68.7,72.6,70.6,68.1,99,94,86,29.87,29.81,2,0,8,0.85
2013-7-23,87.1,76.8,70.4,75.9,71.5,68.4,99,85,60,29.86,29.75,3,1,9,0.00
2013-7-24,86.4,75.6,67.0,74.4,69.7,62.7,97,83,61,29.89,29.74,2,0,10,0.01
2013-7-25,82.8,71.8,60.2,67.0,63.2,58.8,96,76,51,29.99,29.87,2,0,10,0.00
2013-7-26,83.3,72.0,58.9,69.2,64.4,57.5,97,78,56,30.00,29.89,2,0,7,0.00
2013-7-27,83.4,72.9,65.4,69.9,66.7,64.2,97,82,60,29.94,29.82,3,1,9,0.00
2013-7-28,75.7,67.9,59.1,65.4,58.8,53.9,94,74,50,30.03,29.89,2,0,8,0.00
2013-7-29,77.5,66.2,55.6,65.7,60.4,54.8,98,83,55,30.13,30.01,2,0,6,0.00
2013-7-30,81.3,70.6,62.1,73.3,67.0,61.0,98,89,64,30.12,29.99,2,0,9,0.10
2013-7-31,73.1,69.6,68.3,72.8,69.0,67.4,99,98,97,30.01,29.94,2,0,5,0.55
2013-8-1,72.5,68.2,66.2,71.8,66.6,65.0,98,95,90,29.97,29.93,1,0,3,0.01
2013-8-2,86.1,73.3,60.4,70.2,65.2,59.6,99,79,45,29.99,29.91,2,0,5,0.00
2013-8-3,78.4,71.0,67.1,74.2,69.3,65.7,98,95,86,30.00,29.91,0,0,3,0.36
2013-8-4,83.5,75.2,68.3,74.0,69.8,62.5,99,84,63,30.04,29.97,3,0,8,0.00
2013-8-5,78.1,70.5,64.9,69.4,65.6,61.9,97,85,60,30.02,29.89,2,0,6,0.01
2013-8-6,80.0,74.2,68.3,75.9,72.2,67.4,98,94,86,29.93,29.84,1,0,6,0.02
2013-8-7,72.4,71.3,70.5,72.1,70.9,69.9,99,98,97,29.93,29.84,1,0,5,0.40
2013-8-10,85.6,77.5,69.4,76.9,73.2,68.8,99,87,69,30.06,29.96,2,0,7,0.02
2013-8-11,85.7,77.1,71.5,78.3,74.2,70.9,99,91,76,30.06,29.97,3,0,9,0.45
2013-8-12,81.7,74.5,70.5,76.1,72.7,70.0,99,94,82,30.02,29.88,2,0,9,0.01
2013-8-13,76.5,71.9,69.5,70.2,67.3,66.4,90,85,80,29.93,29.88,1,0,5,0.00
2013-8-14,76.0,67.1,59.5,66.6,59.6,55.1,92,78,55,30.03,29.93,3,1,12,0.00
2013-8-15,79.7,67.3,55.9,65.1,59.4,53.8,93,77,56,30.02,29.93,2,1,7,0.00
2013-8-16,76.3,70.8,65.0,68.1,65.7,63.0,97,84,71,30.02,29.96,2,1,8,0.01
2013-8-17,74.3,68.7,65.3,67.6,65.9,64.1,98,91,78,30.06,29.99,2,0,6,0.01
2013-8-18,79.6,71.4,63.3,70.5,66.3,62.5,99,85,65,30.09,30.01,2,0,5,0.00
2013-8-19,73.8,70.0,65.9,70.7,68.6,65.3,98,95,90,30.05,29.98,0,0,4,0.00
2013-8-20,86.4,74.7,67.7,74.9,70.8,66.8,99,89,60,30.07,29.97,2,0,5,0.55
2013-8-21,87.2,75.6,68.1,76.9,71.5,67.5,99,88,65,30.10,30.01,3,0,8,0.00
2013-8-22,73.8,69.5,67.0,71.7,68.6,66.4,99,97,93,30.06,29.97,0,0,2,0.02
2013-8-23,90.1,75.8,67.0,76.5,70.9,66.6,99,86,56,30.02,29.92,4,0,8,0.36
2013-8-24,87.3,76.6,67.9,74.6,70.5,67.6,99,83,57,30.11,30.00,2,0,7,0.00
2013-8-25,86.2,75.5,68.1,72.8,69.3,66.6,97,82,60,30.24,30.12,3,1,8,0.00
2013-8-26,87.3,74.4,63.9,71.3,67.2,63.3,98,81,49,30.22,30.07,2,0,5,0.01
2013-8-27,86.8,74.0,62.0,74.7,68.0,61.4,99,83,58,30.09,29.98,2,0,7,0.00
2013-8-28,89.7,76.8,64.8,74.2,70.5,64.2,99,83,55,30.02,29.94,2,0,6,0.00
2013-8-29,92.2,79.0,67.8,77.8,72.8,67.2,99,83,57,29.99,29.89,2,0,8,0.00
2013-8-30,93.2,80.7,70.8,77.3,73.7,70.2,99,81,54,29.93,29.82,3,0,8,0.00
2013-8-31,92.4,79.6,69.3,77.0,72.8,68.7,99,82,57,29.87,29.75,3,0,10,0.00
2013-9-1,81.5,71.6,65.8,74.4,69.4,64.9,99,93,72,29.87,29.75,4,0,15,1.31
2013-9-2,84.3,73.5,66.9,76.7,71.0,66.4,99,92,76,29.86,29.77,1,0,7,0.00
2013-9-3,85.1,73.7,64.0,71.3,67.0,63.7,99,82,53,29.97,29.84,2,0,7,0.01
2013-9-4,83.7,71.8,62.0,68.5,64.4,60.9,98,80,52,30.07,29.96,2,0,6,0.01
2013-9-5,82.8,70.4,59.1,68.6,63.5,58.5,99,81,52,30.12,30.05,2,0,8,0.00
2013-9-6,87.6,72.6,59.9,72.2,65.8,59.3,99,82,49,30.10,29.99,1,0,5,0.01
2013-9-7,88.7,74.4,60.9,73.0,67.4,60.3,98,81,53,30.03,29.91,2,0,8,0.01
2013-9-8,90.8,76.1,64.5,74.7,69.7,63.9,99,83,53,29.95,29.86,1,0,6,0.00
2013-9-9,90.6,77.2,68.8,76.9,71.9,67.9,98,85,53,29.99,29.91,2,0,6,0.00
2013-9-10,89.6,74.7,70.0,77.1,71.6,69.2,98,91,59,30.10,29.99,2,0,9,0.17
2013-9-11,89.2,76.5,68.1,76.3,72.0,67.8,100,87,60,30.14,30.01,1,0,6,0.01
2013-9-12,88.4,76.4,69.2,74.9,72.1,68.6,99,88,60,30.01,29.85,3,0,9,0.01
2013-9-13,77.3,68.6,57.5,69.8,60.0,51.0,98,76,46,29.96,29.88,3,1,11,0.00
2013-9-14,73.9,60.4,46.0,55.8,51.5,44.6,97,75,47,30.05,29.95,4,1,9,0.00
2013-9-15,82.9,65.0,50.9,63.2,56.9,50.1,98,79,44,30.06,30.00,2,0,7,0.01
2013-9-16,83.8,68.7,55.7,68.1,61.1,55.1,98,80,40,30.12,30.04,2,0,7,0.00
2013-9-17,85.7,71.7,62.3,69.4,65.2,61.4,97,82,53,30.12,30.00,2,0,6,0.01
2013-9-18,83.3,72.6,66.1,71.9,67.3,63.4,96,85,66,30.09,29.98,3,0,10,0.00
2013-9-19,87.2,74.3,64.7,71.1,67.4,63.7,97,81,55,30.07,29.92,2,0,8,0.00
2013-9-20,85.6,72.9,63.7,73.3,68.2,62.8,98,87,61,29.94,29.71,2,0,12,0.08
2013-9-21,73.8,65.3,57.0,69.2,59.3,52.0,98,82,55,29.82,29.70,3,1,13,0.00
2013-9-22,74.9,62.4,52.1,56.1,53.1,49.7,94,74,50,29.90,29.81,3,1,11,0.00
2013-9-23,79.3,63.1,51.2,62.4,56.0,50.2,98,80,45,29.95,29.87,2,0,8,0.01
2013-9-24,79.4,66.8,56.4,69.1,62.9,55.6,99,88,63,29.92,29.77,2,0,9,0.02
2013-9-25,77.6,68.3,62.2,68.0,65.5,61.3,99,91,69,29.81,29.74,2,0,7,0.31
2013-9-26,77.9,66.0,59.6,67.6,63.1,59.0,99,91,65,29.96,29.80,2,0,7,0.01
2013-9-27,82.1,67.1,55.4,67.3,61.4,54.8,99,84,52,30.06,29.96,2,0,5,0.01
2013-9-28,79.0,66.5,57.0,62.7,59.2,56.0,98,80,50,30.12,30.00,3,0,9,0.01
2013-9-29,65.3,58.9,56.2,59.7,56.8,55.3,97,93,80,30.03,30.00,1,0,7,0.00
2013-9-30,70.7,67.3,63.1,63.9,62.7,61.2,94,85,75,29.99,29.91,3,1,9,0.00
2013-10-1,81.1,69.6,61.7,72.0,66.0,60.5,98,89,70,30.04,29.95,1,0,6,0.00
2013-10-2,82.5,72.3,65.8,70.9,68.2,65.2,99,88,66,30.06,29.99,3,0,8,0.00
2013-10-3,83.0,72.5,64.9,69.0,66.0,63.6,98,82,54,30.04,29.93,2,0,11,0.00
2013-10-4,84.5,71.7,63.1,71.8,67.0,62.2,98,86,62,30.05,29.95,2,0,9,0.00
2013-10-5,86.8,74.7,65.3,73.0,69.0,64.6,98,84,60,30.00,29.83,2,0,11,0.00
2013-10-6,73.3,61.6,50.5,68.1,59.1,49.7,98,92,78,29.91,29.78,4,1,13,0.05
2013-10-7,66.5,53.9,43.2,52.4,48.5,42.6,99,84,58,30.08,29.90,3,0,9,0.01
2013-10-8,70.8,57.4,47.5,54.0,49.5,45.3,93,77,47,30.12,30.04,4,1,13,0.00
2013-10-9,77.1,62.5,50.7,64.7,57.5,49.6,98,85,63,30.14,30.05,2,0,9,0.00
2013-10-10,78.0,65.1,56.5,66.6,60.8,55.9,99,88,60,30.11,29.98,2,0,6,0.00
2013-10-11,81.2,64.0,52.8,64.4,58.5,52.3,99,85,50,30.05,29.94,2,0,8,0.01
2013-10-12,77.4,64.2,51.7,68.1,60.2,51.2,99,88,63,30.08,29.97,2,0,7,0.01
2013-10-13,78.6,66.9,57.4,67.1,62.2,55.0,99,86,65,30.20,30.08,3,0,10,0.00
2013-10-14,79.6,65.8,54.6,63.4,58.3,52.7,94,78,48,30.19,30.04,2,0,8,0.00
2013-10-15,73.4,66.6,61.2,64.9,62.3,60.0,97,86,71,30.06,29.93,2,0,8,0.00
2013-10-16,66.5,61.7,56.4,64.8,60.4,55.8,98,96,91,29.95,29.87,1,0,11,0.26
2013-10-17,63.8,55.7,48.1,55.9,52.6,47.3,99,90,67,29.98,29.87,2,0,7,0.11
2013-10-18,66.3,51.7,39.5,54.2,47.2,38.8,99,86,55,30.07,29.93,2,0,6,0.01
2013-10-19,54.5,47.9,38.4,51.3,46.1,37.6,98,94,77,30.06,29.88,4,0,10,0.06
2013-10-20,63.8,45.5,31.7,46.5,39.1,31.0,99,82,44,30.12,30.00,2,0,6,0.01
2013-10-21,70.1,51.6,35.5,52.2,44.4,34.7,99,80,43,30.07,29.96,2,0,8,0.01
2013-10-22,62.2,51.7,46.2,51.7,46.7,43.3,97,85,53,30.03,29.85,3,0,7,0.05
2013-10-23,52.4,44.6,38.8,45.5,38.6,36.0,96,81,55,30.10,29.86,3,1,10,0.00
2013-10-24,54.7,44.9,34.0,43.6,39.1,31.1,96,81,56,30.36,30.10,4,1,9,0.00
2013-10-25,50.9,36.7,25.5,32.3,28.6,24.0,96,75,42,30.50,30.33,2,0,10,0.01
2013-10-26,61.1,44.0,26.6,46.0,35.0,25.4,97,74,43,30.33,30.09,2,0,9,0.00
2013-10-27,62.9,54.9,47.3,56.0,51.2,44.6,96,88,74,30.10,30.02,1,0,5,0.01
2013-10-28,64.4,56.9,49.0,59.1,55.4,48.2,99,95,81,30.22,30.05,1,0,5,0.07
2013-10-29,70.3,58.3,46.3,63.3,55.6,45.8,99,91,75,30.26,30.12,1,0,5,0.00
2013-10-30,75.4,65.6,55.1,64.5,59.6,54.3,99,82,62,30.18,30.00,2,0,9,0.01
2013-10-31,69.2,64.6,60.8,65.4,62.0,56.8,97,91,78,29.99,29.52,5,2,22,0.51
2013-11-1,70.0,58.2,47.1,56.4,49.2,42.4,99,75,39,29.81,29.66,5,1,12,0.00
2013-11-2,62.6,50.5,42.4,47.6,43.3,38.8,98,78,51,30.15,29.81,5,1,12,0.00
2013-11-3,58.4,44.0,32.4,43.1,35.8,31.4,98,77,36,30.29,30.14,3,0,10,0.00
2013-11-4,63.1,49.2,35.1,45.5,39.9,33.8,96,73,45,30.34,30.22,3,0,11,0.00
2013-11-5,70.6,57.7,50.5,48.7,43.4,38.7,72,60,42,30.34,30.18,3,1,12,0.00
2013-11-6,70.3,60.8,46.5,60.5,53.3,42.1,97,77,58,30.18,29.99,6,2,14,0.34
2013-11-7,54.2,44.3,33.2,44.7,33.8,26.6,96,69,36,30.32,30.11,4,1,12,0.00
2013-11-8,57.7,41.9,27.8,36.8,30.9,26.6,97,69,34,30.40,30.23,3,0,9,0.00
2013-11-9,59.9,46.2,32.3,41.7,34.4,28.9,90,66,37,30.29,30.18,3,0,9,0.00
2013-11-10,65.9,52.0,39.2,45.2,36.8,28.3,95,60,31,30.34,30.23,3,1,10,0.00
2013-11-11,69.7,51.2,30.2,36.9,30.2,20.9,92,52,18,30.28,30.12,3,0,9,0.00
2013-11-12,54.3,38.9,28.3,42.9,27.7,18.4,90,66,40,30.62,30.16,6,3,20,0.00
2013-11-13,45.0,32.2,22.4,25.1,21.2,17.2,91,67,33,30.71,30.44,3,0,8,0.00
2013-11-14,57.7,38.6,19.9,26.2,20.2,17.6,93,55,21,30.44,30.18,3,0,8,0.00
2013-11-15,53.2,45.7,32.9,49.6,39.7,21.9,95,80,58,30.19,30.05,2,0,8,0.00
2013-11-16,63.2,57.0,50.9,60.4,55.4,49.5,98,94,90,30.08,29.93,4,1,13,0.01
2013-11-17,70.5,65.2,54.5,67.4,62.2,45.3,98,90,70,29.91,29.68,6,2,19,0.19
2013-11-18,61.1,52.2,42.5,45.2,36.3,27.9,74,55,39,30.23,29.91,5,1,12,0.00
2013-11-19,48.7,42.4,36.0,30.1,28.3,26.1,78,58,42,30.28,30.17,5,2,13,0.00
2013-11-20,60.9,45.6,29.4,36.7,32.2,27.4,94,63,36,30.23,30.11,4,1,14,0.00
2013-11-21,66.5,55.7,45.5,54.6,47.5,36.6,92,75,55,30.26,30.14,4,1,11,0.02
2013-11-22,58.1,48.5,42.9,55.8,46.1,40.7,93,92,90,30.33,30.17,4,2,13,0.14
2013-11-23,43.6,38.2,24.2,40.7,29.4,15.1,95,73,32,30.56,30.32,5,3,14,0.01
2013-11-24,33.0,26.0,18.2,16.2,14.6,12.8,80,63,44,30.66,30.47,5,2,14,0.00
2013-11-25,41.0,32.9,27.4,31.9,22.6,14.4,94,68,40,30.47,30.16,3,1,9,0.08
2013-11-26,36.9,34.7,33.1,35.3,32.7,27.5,97,92,77,30.17,29.90,4,2,12,0.22
2013-11-27,33.8,27.4,22.1,27.4,19.1,14.8,78,71,61,30.24,30.01,6,4,18,0.00
2013-11-28,44.6,36.3,26.1,21.1,16.5,14.8,79,46,31,30.49,30.39,2,0,7,0.00
2013-11-29,51.4,34.0,20.3,28.9,23.6,18.1,92,69,39,30.58,30.44,2,0,8,0.00
2013-11-30,58.8,41.9,24.6,32.1,26.8,22.2,93,59,26,30.45,30.22,6,1,10,0.00
2013-12-1,55.4,47.9,37.9,41.6,35.9,29.3,77,64,50,30.22,29.92,4,0,5,0.00
2013-12-2,55.6,51.8,47.4,50.5,47.2,41.1,93,85,74,29.92,29.72,3,0,7,0.00
2013-12-3,59.5,55.2,51.0,56.6,52.9,49.5,97,92,82,29.77,29.71,5,1,9,0.00
2013-12-4,74.3,66.7,58.2,63.0,60.3,56.6,95,81,58,29.82,29.70,9,2,15,0.00
2013-12-5,67.9,51.0,33.1,65.5,49.1,31.8,96,93,87,30.09,29.82,7,2,11,0.35
2013-12-6,33.3,31.3,26.3,32.2,30.1,24.8,96,95,94,30.39,30.04,9,2,13,0.06
2013-12-7,29.1,25.9,23.6,27.9,24.5,21.9,95,94,93,30.54,30.29,8,2,11,0.00
2013-12-8,38.5,34.3,29.0,38.0,33.6,27.8,98,97,95,30.31,30.05,5,0,8,0.51
2013-12-9,35.5,31.8,28.8,34.8,29.6,25.4,98,92,85,30.26,30.10,6,2,13,0.00
2013-12-10,39.1,29.5,23.4,27.1,23.7,19.9,94,80,58,30.42,30.15,6,1,11,0.05
2013-12-11,45.1,30.0,17.5,31.9,23.9,15.8,97,79,47,30.56,30.40,8,1,12,0.00
2013-12-12,38.8,25.8,14.3,20.5,16.4,12.2,94,70,39,30.62,30.41,5,0,7,0.00
2013-12-13,44.1,32.0,17.0,33.4,22.3,14.8,93,70,40,30.41,29.97,5,0,10,0.02
2013-12-14,46.1,39.8,34.2,45.6,37.9,31.3,98,93,78,30.03,29.79,9,2,14,0.56
2013-12-15,34.3,31.3,27.3,31.8,28.0,25.6,94,88,81,30.24,30.03,7,1,12,0.00
2013-12-16,55.1,40.3,26.0,37.8,32.2,24.8,97,75,51,30.20,30.10,6,1,13,0.00
2013-12-17,55.9,44.0,31.6,40.3,33.0,25.1,83,66,48,30.29,30.09,11,2,16,0.00
2013-12-18,53.2,38.4,21.6,30.0,23.4,14.7,95,60,24,30.37,30.17,9,0,9,0.00
2013-12-19,62.3,51.8,40.2,48.9,39.5,28.5,71,63,57,30.20,30.01,13,2,13,0.00
2013-12-20,63.4,59.5,55.1,60.1,54.3,40.9,92,83,58,30.01,29.85,14,2,15,0.01
2013-12-21,73.1,67.0,60.6,66.7,62.9,59.7,97,87,80,29.85,29.53,12,3,23,1.01
2013-12-22,52.5,42.2,28.0,26.5,22.9,20.2,82,49,31,30.39,30.32,3,0,7,0.00
2013-12-23,28.1,26.3,24.5,24.3,22.8,21.8,90,86,80,30.34,30.30,0,0,1,0.00
2013-12-24,39.2,39.1,39.1,38.6,38.3,38.3,98,97,97,29.97,29.93,1,0,3,0.20
2013-12-25,32.7,30.9,29.0,29.0,27.6,25.6,89,87,86,30.20,30.14,4,1,7,0.00
2013-12-26,23.4,21.8,20.3,21.7,20.3,18.9,95,94,93,30.39,30.31,0,0,2,0.00
2013-12-27,27.3,24.7,21.2,24.2,22.4,19.2,94,91,88,30.34,30.27,0,0,1,0.00
2013-12-28,44.0,40.2,38.7,38.2,35.9,30.6,97,86,60,30.25,29.99,3,0,6,0.24
2013-12-29,53.7,46.4,34.3,42.6,39.4,31.4,91,77,64,30.13,29.93,9,2,10,0.24
2013-12-30,31.9,29.6,24.9,27.4,25.6,22.9,92,85,79,30.31,30.22,1,0,5,0.00
2013-12-31,44.6,34.9,28.7,28.0,25.7,24.2,86,70,50,30.38,30.36,1,0,6,0.00
2014-1-1,45.3,42.7,41.3,35.6,33.4,29.6,80,70,54,30.09,29.98,1,0,7,0.00
2014-1-2,26.9,23.0,20.0,24.6,16.5,12.5,91,76,70,30.37,30.06,16,4,16,0.25